Location: Del Amo
(33.8464°N, 118.2104°W)
Time: 15:32:16
(UTC+00:00)

SR - Pass Details

Date: 18 September 2024
Orbit: 577 x 856 km, 66.7° (Epoch: 11 October)

Event Time Altitude Azimuth Distance (km) Brightness Sun altitude
Rises 04:31:20 0° 349° (N) 2,973 ? -32.0°
Reaches altitude 10° 04:34:04 10° 6° (N) 2,109 ? -32.5°
Enters shadow 04:34:08 10° 7° (N) 2,090 ? -32.5°
